Simultaneous Nadir Overpasses (SNOs) Predictions

Prediction of SNOs between AQUA and NOAA-19 Satellite Orbit:

Table of predicted SNOs for the next 14.0 days since TLE Epoch: 5/17/2014
Index Date (AQUA) Time (AQUA) Lat,Lon (AQUA) SZA (AQUA ) Date (NOAA-19) Time (NOAA-19) Lat,Lon (NOAA-19) SZA (NOAA-19 ) Distance(km) Time Diff (sec)
1 05/17/2014 07:18:12 76.79, 56.81 57.75 05/17/2014 07:16:58 76.73, 56.68 57.72 7.30 74
2 05/17/2014 08:07:06 -75.26,-130.79 123.99 05/17/2014 08:07:22 -75.27,-130.85 123.99 2.00 16
3 05/19/2014 12:51:26 -75.48, 157.52 124.23 05/19/2014 12:51:19 -75.49, 157.51 124.22 0.44 7
4 05/21/2014 17:35:49 -75.88, 85.31 124.24 05/21/2014 17:35:20 -75.89, 85.22 124.21 2.79 29
5 05/21/2014 18:24:53 74.70,-103.82 54.46 05/21/2014 18:26:02 74.71,-103.86 54.46 1.13 69
6 05/23/2014 22:20:09 -76.15, 13.42 124.36 05/23/2014 22:19:18 -76.16, 13.32 124.33 2.98 51
7 05/23/2014 23:09:13 74.98,-175.61 54.34 05/23/2014 23:10:00 74.98,-175.60 54.33 0.58 47
8 05/26/2014 03:04:27 -76.34, -58.26 124.53 05/26/2014 03:03:14 -76.34, -58.30 124.51 0.96 73
9 05/26/2014 03:53:36 75.44, 112.09 54.45 05/26/2014 03:54:02 75.45, 112.03 54.46 1.96 26
10 05/28/2014 08:37:55 75.77, 40.09 54.45 05/28/2014 08:38:00 75.78, 40.00 54.47 2.74 5
11 05/30/2014 13:22:12 75.97, -31.57 54.35 05/30/2014 13:21:56 75.98, -31.63 54.36 1.75 16




NCC Satellite Simultaneous Nadir Overpasses (SNOs) Prediction Service
